EHI
0 0 0 0 0 0 0 0 0 0 0 0 0 0 0 0 0 0 0 0 1 2 2 1 0 0 0 0 0 0 0 0 0 0 0 0 0 0 0 0 0 0 0
0 0 0 0 0 0 0 0 0 0 0 0 0 0 0 0 0 0 0 0 0 1 1 1 0 0 0 0 0 0 0 0 0 0 0 0 0 0 0 0 0 0 0
0 0 0 0 0 0 0 0 0 0 0 0 0 0 0 0 0 0 0 0 0 0 0 0 0 0 0 0 0 0 0 0 0 0 0 0 0 0 0 0 0 0 0
0 0 0 0 0 0 0 0 0 0 0 0 0 0 0 0 0 0 0 0 0 0 0 0 1 1 0 0 0 0 0 0 0 0 0 0 0 0 0 0 0 0 0
0 0 0 0 0 0 0 0 0 0 0 0 0 0 0 0 0 0 0 0 0 0 0 0 1 2 1 2 1 1 0 0 0 0 0 0 0 0 0 0 0 0 0
0 0 0 0 0 0 0 0 0 0 0 0 0 0 0 0 0 0 0 0 0 0 0 0 1 1 2 3 4 3 2 1 0 0 0 0 0 0 0 0 0 0 0
0 0 0 0 0 1 0 0 0 0 0 0 0 0 0 0 0 0 0 0 0 0 0 0 0 0 1 2 4 5 4 3 1 0 0 0 0 0 0 0 0 0 0
0 0 0 0 0 0 0 0 0 0 0 0 0 0 0 0 0 0 0 0 0 0 0 0 0 0 0 0 1 3 5 5 3 2 2 1 1 0 0 0 0 0 0
0 0 0 0 0 0 0 0 0 0 0 0 0 0 0 0 0 0 0 0 0 0 0 0 0 0 0 0 0 1 3 4 5 4 4 3 3 2 1 0 0 0 0
0 0 0 0 0 0 0 1 1 1 0 0 0 0 0 0 0 0 0 0 0 0 0 0 0 0 0 0 0 0 1 2 3 5 6 6 6 5 3 2 1 1 1
0 0 1 1 1 1 1 1 2 2 1 0 0 0 0 0 0 0 0 0 0 0 0 0 0 0 0 0 0 0 0 0 1 3 5 6 5 5 4 4 4 3 2
1 1 1 1 1 1 2 3 3 3 2 1 1 0 0 0 0 0 0 0 0 0 0 0 0 0 0 0 0 0 0 0 0 0 2 3 2 2 2 4 3 3 2
2 2 1 1 1 1 2 2 3 3 3 3 1 0 0 0 0 0 0 0 0 0 0 0 0 0 0 0 0 0 0 0 0 0 0 0 0 0 0 1 1 1 1
3 2 2 1 0 0 1 1 1 3 4 3 1 0 0 0 0 0 0 0 0 0 0 0 0 0 0 0 0 0 0 0 0 0 0 0 0 0 0 0 0 0 0
2 1 1 0 1 1 1 0 0 1 2 1 0 0 0 0 0 0 0 0 0 0 1 1 0 0 0 0 0 0 0 0 0 0 0 0 0 0 0 0 0 0 0
2 2 1 2 2 2 1 1 0 0 0 0 0 0 0 0 0 0 0 0 0 0 1 1 0 0 0 0 0 0 0 0 0 0 0 0 0 0 0 0 0 0 0
3 3 4 5 4 2 2 2 1 0 0 0 0 0 0 0 0 0 0 0 0 0 1 1 0 0 0 0 0 0 0 0 0 0 0 0 0 0 0 0 0 0 0
5 5 7 7 5 3 2 2 1 0 0 0 0 0 0 0 0 0 0 0 0 0 0 0 0 0 0 0 0 0 0 0 0 0 0 0 0 0 0 0 0 0 0
6 6 7 7 6 4 3 1 0 1 1 0 0 0 0 1 1 1 1 0 0 1 1 0 0 1 1 0 0 0 0 0 0 0 0 0 0 0 0 0 0 0 0
7 6 6 6 5 4 2 1 1 2 2 1 1 0 1 2 3 2 1 1 1 1 1 0 0 1 1 0 0 0 0 0 0 0 0 0 0 0 0 0 0 0 0
6 6 6 5 4 3 2 2 3 4 3 2 1 1 1 2 2 2 1 1 1 1 0 0 0 1 1 0 0 0 0 0 0 0 0 0 0 0 0 0 0 0 0
5 6 6 5 4 3 1 1 2 4 4 2 1 0 1 1 1 1 0 1 1 0 0 0 0 0 0 0 0 0 0 0 0 0 0 0 0 0 0 0 0 0 0
7 7 6 4 4 2 1 0 1 2 3 2 1 1 1 0 0 0 0 0 0 0 0 0 0 0 0 0 0 0 0 0 0 0 0 0 0 0 0 0 0 0 0
9 9 7 5 3 2 1 0 0 1 2 2 2 2 2 1 0 0 0 1 1 0 0 0 0 0 0 0 0 0 0 0 0 0 0 0 0 0 0 0 0 0 0
12 11 10 8 4 2 1 0 0 1 2 3 3 3 2 1 0 0 0 1 1 0 0 0 0 0 0 0 0 0 0 0 0 0 0 0 0 0 0 0 0 0 0
12 13 13 10 6 3 2 1 1 2 2 3 3 3 1 0 0 0 0 1 0 0 0 0 0 0 0 0 0 0 0 0 0 0 0 0 0 0 0 0 0 0 0
Wind_Speed
1 1 1 1 2 2 2 2 2 3 3 3 2 3 3 3 3 2 2 6 7 7 8 9 8 8 8 8 8 9 9 10 9 9 8 9 9 9 9 9 9 8 7
1 1 1 1 1 1 1 1 2 2 2 2 2 2 2 3 3 2 2 3 5 7 8 8 9 9 9 9 8 8 9 9 9 9 8 8 8 9 8 9 8 8 7
2 1 1 0 0 1 2 2 2 2 2 2 2 2 2 2 2 2 2 1 2 5 7 7 8 9 9 9 9 9 9 9 9 9 8 8 8 8 8 8 8 8 8
2 2 1 1 1 1 1 1 1 2 2 2 1 1 1 1 2 2 2 2 2 2 5 7 8 9 10 10 10 10 10 9 9 9 9 9 9 8 8 8 9 8 8
3 2 2 1 1 1 1 1 1 1 1 1 1 1 0 1 1 2 2 3 3 3 3 5 7 8 9 10 10 10 10 10 10 10 10 10 10 9 9 9 9 9 9
4 3 2 2 2 1 1 1 2 1 1 1 1 1 0 1 1 1 2 2 3 4 4 4 4 5 8 9 10 10 11 11 11 11 11 11 11 10 10 10 10 9 9
4 3 2 2 2 2 2 2 2 1 1 1 2 2 2 1 1 1 2 2 3 4 4 5 4 3 3 7 9 10 11 11 11 11 12 12 12 12 11 11 11 10 10
3 3 3 2 2 2 2 2 2 1 0 1 2 1 2 3 2 1 1 2 3 3 4 5 5 5 4 3 5 9 11 12 13 13 12 12 12 12 12 13 12 12 11
3 3 3 3 2 2 2 3 3 3 1 0 1 2 2 1 2 2 1 2 2 2 3 3 5 5 6 5 5 7 10 11 12 13 13 12 12 12 12 13 13 13 13
3 4 3 3 3 2 3 3 3 2 3 1 1 1 1 2 1 1 2 1 2 3 3 3 4 5 5 5 6 8 10 11 12 13 13 12 12 12 12 13 13 13 13
3 3 4 3 3 3 3 3 3 3 3 3 2 2 1 1 1 2 2 2 2 2 3 4 3 3 4 5 5 7 9 10 11 11 12 12 12 13 12 13 14 14 13
2 3 4 4 4 3 4 4 4 4 3 3 2 2 2 2 2 2 3 3 3 3 3 3 3 4 4 4 6 7 9 9 10 11 11 11 12 12 12 13 13 13 13
2 3 4 4 3 4 4 3 4 4 4 4 4 3 3 3 2 2 2 2 2 2 2 2 3 3 3 3 4 6 7 7 9 10 10 10 11 11 12 12 12 13 13
3 3 4 4 4 4 4 3 3 4 3 4 4 4 3 3 3 3 3 2 2 2 2 3 2 2 2 2 3 5 4 5 6 7 7 8 9 9 9 9 10 10 10
3 3 4 4 4 3 4 3 3 4 3 3 4 4 3 3 3 3 3 3 3 2 3 2 2 1 2 2 2 2 2 2 3 3 4 5 6 7 7 8 8 8 9
3 3 3 3 3 3 3 3 3 3 3 3 2 2 2 2 2 2 3 3 3 3 3 2 2 2 2 1 1 1 1 0 0 1 1 2 4 5 5 6 7 7 8
3 3 3 3 3 3 2 3 3 3 3 2 2 2 3 2 2 2 2 2 3 3 3 2 1 2 1 1 1 1 1 1 1 1 0 1 2 3 4 4 5 5 6
3 3 2 2 2 2 2 2 2 2 2 2 1 1 2 2 2 2 2 2 2 3 3 3 1 1 1 1 1 1 1 1 1 1 1 1 1 1 1 2 3 3 4
2 2 2 2 2 2 2 2 2 2 1 1 1 1 2 1 2 1 2 2 2 1 1 1 1 0 1 1 2 2 2 2 2 2 2 2 2 2 2 1 1 1 2
2 2 2 2 1 1 1 2 2 2 1 1 1 0 1 1 1 1 1 1 1 1 1 1 0 1 1 1 1 1 2 2 2 3 3 3 4 4 4 3 3 2 1
2 2 1 1 0 1 1 2 2 2 2 2 1 1 1 2 3 2 1 1 2 2 2 2 1 1 1 1 1 1 1 1 2 2 2 3 3 3 4 4 3 3 2
2 2 1 1 1 1 2 4 3 2 2 2 1 1 2 2 4 5 6 5 4 3 3 2 1 1 1 1 1 1 0 1 1 2 2 2 3 3 3 3 5 5 4
1 1 1 1 1 1 3 4 4 3 3 2 1 1 2 3 3 4 6 7 7 6 4 3 2 0 1 1 0 1 1 1 1 2 1 2 3 3 3 4 6 5 5
1 1 1 1 2 2 3 4 5 4 3 3 2 2 2 2 3 4 5 5 5 5 4 3 2 1 2 1 1 1 1 1 1 2 2 1 2 2 3 3 7 7 7
1 1 1 2 2 2 4 4 5 4 4 3 3 3 3 3 4 5 5 5 5 4 6 7 6 5 6 6 3 2 2 2 1 2 2 1 1 1 2 2 4 7 7
1 2 2 2 2 2 3 4 5 3 4 3 3 3 5 4 5 5 5 5 4 2 3 4 6 6 5 5 6 3 1 1 1 1 2 1 1 1 1 2 3 3 4
Wind_Direction
94 71 55 50 44 48 53 49 49 55 64 75 87 110 129 141 144 148 167 183 185 183 179 178 176 174 171 170 165 165 166 165 165 164 167 169 169 168 169 169 167 163 162
138 114 70 47 36 44 55 59 53 60 66 81 86 106 131 144 152 160 174 197 197 192 191 187 185 184 179 176 177 175 174 176 175 173 175 178 179 176 178 178 176 174 171
166 152 127 80 29 56 66 66 60 62 70 81 81 100 128 153 160 172 180 192 206 204 198 196 196 194 186 186 187 187 187 187 184 182 183 184 185 184 186 185 185 183 180
166 155 150 171 131 91 92 95 78 72 55 65 69 60 98 166 197 197 200 206 206 212 210 206 202 197 198 199 196 195 196 194 192 192 193 194 195 194 194 194 194 191 190
173 170 174 175 136 113 105 113 87 97 82 66 85 85 134 227 236 224 217 218 213 212 209 222 218 210 209 208 206 205 205 203 203 202 203 205 205 204 204 201 199 199 200
178 170 172 172 145 124 106 99 101 84 99 100 63 53 337 278 258 246 237 226 218 219 220 227 227 226 223 219 213 212 213 212 211 212 212 213 213 210 209 207 206 208 209
182 172 170 170 167 162 168 157 124 106 72 87 72 25 359 343 280 262 248 236 235 230 224 225 226 229 233 232 225 220 220 218 216 215 217 218 218 215 213 213 213 214 215
191 184 175 180 178 167 163 164 148 135 104 112 118 85 8 348 333 291 254 231 239 231 231 229 225 225 227 229 226 226 226 225 222 219 217 219 219 218 217 218 219 218 219
194 191 187 183 184 183 188 190 177 166 171 163 147 144 149 238 307 322 287 252 243 231 237 232 229 228 227 226 231 232 229 228 227 224 222 221 219 220 221 223 224 222 222
200 200 198 188 198 197 201 205 191 176 169 192 172 177 182 173 185 304 316 289 262 251 250 243 240 230 227 227 227 227 227 226 225 226 226 224 220 220 222 225 226 226 225
212 206 198 192 207 211 216 213 194 191 184 186 183 173 168 174 193 203 277 307 300 263 250 245 246 243 236 228 227 230 226 224 222 224 226 226 225 224 224 227 229 229 229
225 216 199 200 207 215 220 219 210 206 203 196 194 189 184 189 199 195 231 265 281 284 266 248 242 244 241 232 234 232 226 224 223 225 228 229 228 227 227 228 231 232 232
224 225 207 205 209 217 219 216 213 214 207 205 206 210 210 215 195 187 206 247 269 291 288 260 241 241 241 233 240 239 234 228 227 226 228 230 230 230 229 231 234 236 236
221 220 208 214 220 217 218 210 218 220 210 214 220 213 216 221 203 198 197 201 262 290 281 273 267 244 249 249 253 242 244 232 231 229 228 228 229 230 231 232 234 236 238
220 215 213 222 228 222 219 207 220 226 215 220 223 219 224 231 214 214 209 198 198 254 277 272 276 282 262 259 267 240 235 227 222 231 231 231 230 232 232 231 232 234 237
214 209 217 222 227 223 215 209 221 227 222 232 223 223 236 240 230 220 208 203 200 208 244 264 263 295 299 290 306 233 219 93 183 229 240 248 244 238 236 235 237 238 237
207 212 218 219 221 223 214 207 222 222 222 233 227 220 247 242 236 233 211 201 205 200 226 268 280 314 324 10 28 56 62 69 43 81 313 273 258 245 241 242 242 241 244
203 206 204 200 215 224 213 208 224 224 219 232 240 233 265 261 247 233 210 213 212 207 207 243 279 328 358 37 44 53 39 34 349 33 33 10 357 334 280 263 256 246 244
193 186 177 188 208 214 204 203 204 206 204 218 229 245 274 273 268 241 199 208 211 200 188 203 266 356 12 30 33 27 32 19 14 29 41 36 25 24 20 10 342 289 267
169 170 176 196 209 212 184 168 160 152 142 132 119 120 313 306 286 239 195 201 169 140 122 116 66 18 6 6 36 24 11 17 14 17 28 31 32 36 33 26 26 23 358
162 163 156 160 172 177 156 152 150 143 135 118 84 65 57 62 62 70 89 107 121 114 106 97 78 47 17 18 9 5 355 1 18 22 16 20 27 30 22 15 24 34 36
142 127 139 143 142 172 127 137 140 130 127 124 112 71 61 54 67 75 77 80 91 110 115 107 85 54 335 339 349 8 355 12 3 7 10 14 32 28 17 24 27 41 47
131 126 126 129 137 120 117 123 130 126 117 109 99 77 66 62 72 82 77 74 70 72 96 134 131 217 291 302 48 59 38 49 23 357 15 25 23 24 13 23 28 34 36
131 145 143 140 120 97 105 113 119 118 103 91 86 88 90 72 79 98 91 76 65 53 64 82 90 57 35 29 101 163 134 92 53 25 28 37 13 13 8 17 31 38 38
132 132 121 118 111 84 87 107 117 108 96 83 76 76 90 87 75 95 98 91 75 56 60 68 69 61 55 47 56 82 82 98 52 20 24 37 354 356 16 16 23 31 34
133 108 88 89 105 97 81 100 114 112 104 93 75 68 73 83 80 93 99 99 92 66 64 58 50 41 44 46 52 64 91 106 90 20 11 17 1 356 13 11 4 10 19